Flag for Colombia Weather past 2 weeks in Cartagena, Colombia

Now
88 °F

Passing clouds.


Feels Like: 100 °F
Forecast: 79 / 89 °F
Wind: 17 mph from North

Location: Cartagena / Rafael Nunez

Current Time: May 27, 2015 at 2:08:39 PM

Latest Report: May 27, 2015 at 1:00 PM


Visibility: N/A

Pressure: 29.76 "Hg

Humidity: 70%

Dew point: 77 °F

Location of CartagenaLocation

Historic Weather in Cartagena — Graph

°F

Cartagena temperature yesterday

Maximum temperature yesterday: 88 °F (at 9:00 AM)
Minimum temperature yesterday: 79 °F (at 2:00 AM)
Average temperature yesterday: 83 °F

Past Weeks' High & Low Weather Summary

 TemperatureHumidityPressure
High91 °F (May 19, 11:00 AM)94% (May 17, 3:00 AM)29.92 "Hg (May 17, 3:00 AM)
Low79 °F (May 13, 3:00 AM)56% (May 19, 11:00 AM)29.68 "Hg (May 13, 4:00 AM)
Average83 °F82%29.81 "Hg
* Reported May 12 1:00 PM — May 27 1:00 PM, Cartagena, Weather by CustomWeather, © 2015

Note: Actual official high and low records may vary slightly from our data, if they occured in-between our weather recording intervals... More about our weather records

Advertising

Cartagena weather history for previous 24 hours

 ConditionsComfort  
Time TempWeatherWind HumidityBarometerVisibility
1:00 PM
Wed, May 27
88 °FPassing clouds.17 mph70%29.76 "HgN/A
12:00 PM91 °FScattered clouds.9 mph63%29.80 "HgN/A
11:00 AM91 °FScattered clouds.10 mph63%29.81 "HgN/A
10:00 AM90 °FPassing clouds.2 mph67%29.82 "HgN/A
8:00 AM84 °FClear.5 mph74%29.81 "Hg4 mi
7:00 AM81 °FScattered clouds.2 mph89%29.80 "Hg4 mi
6:00 AM79 °FSunny.2 mph94%29.77 "Hg10 mi
5:00 AM79 °FPassing clouds.2 mph94%29.74 "HgN/A
4:00 AM79 °FPassing clouds.2 mph94%29.74 "HgN/A
3:00 AM81 °FPassing clouds.5 mph89%29.74 "HgN/A
2:00 AM81 °FPassing clouds.6 mph89%29.75 "HgN/A
12:00 AM81 °FPassing clouds.9 mph89%29.81 "HgN/A
11:00 PM
Tue, May 26
81 °FPassing clouds.9 mph89%29.82 "HgN/A
10:00 PM82 °FPassing clouds.9 mph84%29.83 "HgN/A
9:00 PM82 °FPassing clouds.10 mph84%29.82 "HgN/A
8:00 PM82 °FPassing clouds.9 mph84%29.82 "HgN/A
7:00 PM82 °FPassing clouds.7 mph84%29.79 "HgN/A
6:00 PM84 °FScattered clouds.10 mph74%29.77 "HgN/A
5:00 PM86 °FScattered clouds.13 mph66%29.77 "HgN/A
4:00 PM86 °FScattered clouds.16 mph70%29.77 "HgN/A
3:00 PM88 °FScattered clouds.20 mph66%29.78 "HgN/A
2:00 PM88 °FScattered clouds.17 mph70%29.80 "HgN/A
Weather by CustomWeather, © 2015

See weather overviewHow to use our weather pages